Location: Bothwell
(41.7170°N, 112.2589°W)
Time: 00:36:36
(UTC+00:00)

Vanguard 1 Rocket - All Passes

Search period start: 12 May 2026 00:00
Search period end: 22 May 2026 00:00
Orbit: 655 x 4212 km, 34.3° (Epoch: 11 May)

Date Brightness Start Highest point End Pass type
(mag) Time Alt. Az. Time Alt. Az. Time Alt. Az.
12 May - 00:16:07 10° WSW 00:27:53 64° SSE 00:49:57 10° E daylight
12 May - 02:41:15 10° W 02:57:40 65° SSW 03:23:09 10° ESE visible
12 May - 05:08:57 10° W 05:28:31 44° SSW 05:51:31 10° SSE visible
12 May - 07:44:09 10° W 07:57:14 17° SW 08:10:08 10° SSW visible
12 May - 20:44:28 10° S 20:49:57 19° SE 20:57:46 10° E daylight
12 May - 23:04:35 10° SW 23:14:13 53° SSE 23:32:38 10° E daylight
13 May - 01:28:37 10° W 01:42:25 68° S 02:06:40 10° ESE daylight
13 May - 03:54:52 10° W 04:12:59 54° SSW 04:37:40 10° SE visible
13 May - 06:25:14 10° W 06:42:51 28° SW 07:01:36 10° S visible
13 May - 21:53:42 10° SSW 22:01:29 38° SE 22:15:30 10° E daylight
14 May - 00:16:30 10° WSW 00:27:52 65° S 00:49:32 10° E daylight
14 May - 02:41:38 10° W 02:57:28 61° SSW 03:22:26 10° ESE visible
14 May - 05:09:31 10° W 05:27:52 38° SW 05:49:58 10° SSE visible
14 May - 07:48:48 10° WSW 07:56:23 12° SW 08:03:59 10° SW visible
14 May - 20:43:49 10° S 20:49:35 23° SE 20:58:23 10° E daylight
14 May - 23:04:53 10° WSW 23:14:11 57° SSE 23:32:19 10° E daylight
15 May - 01:29:02 10° W 01:42:22 66° S 02:06:05 10° ESE daylight
15 May - 03:55:19 10° W 04:12:33 48° SSW 04:36:28 10° SE visible
15 May - 06:26:44 10° W 06:42:03 22° SW 06:58:42 10° S visible
15 May - 21:53:49 10° SW 22:01:23 43° SSE 22:15:22 10° E daylight
16 May - 00:16:56 10° WSW 00:27:56 65° S 00:49:05 10° ESE daylight
16 May - 02:42:05 10° W 02:57:15 56° SSW 03:21:31 10° SE visible
16 May - 05:10:18 10° W 05:27:15 32° SW 05:47:58 10° SSE visible
16 May - 20:43:31 10° SSW 20:49:22 27° SE 20:58:45 10° E daylight
16 May - 23:05:16 10° WSW 23:14:16 59° SSE 23:31:58 10° E daylight
17 May - 01:29:30 10° W 01:42:20 62° S 02:05:24 10° ESE daylight
17 May - 03:55:53 10° W 04:12:09 42° SSW 04:34:58 10° SSE visible
17 May - 06:29:13 10° W 06:41:23 17° SW 06:54:37 10° SSW visible
17 May - 19:35:08 10° SSE 19:37:55 13° SE 19:41:16 10° ESE daylight
17 May - 21:54:04 10° SW 22:01:24 47° SSE 22:15:13 10° E daylight
18 May - 00:17:25 10° W 00:28:01 64° S 00:48:35 10° ESE daylight
18 May - 02:42:35 10° W 02:57:05 51° SSW 03:20:22 10° SE visible
18 May - 05:11:28 10° W 05:26:43 26° SW 05:45:24 10° S visible
18 May - 20:43:27 10° SSW 20:49:16 31° SE 20:58:57 10° E daylight
18 May - 23:05:44 10° WSW 23:14:25 61° S 23:31:38 10° E daylight
19 May - 01:30:01 10° W 01:42:21 58° SSW 02:04:34 10° ESE daylight
19 May - 03:56:39 10° W 04:11:48 36° SSW 04:33:06 10° SSE visible
19 May - 06:34:22 10° WSW 06:40:50 12° SW 06:47:40 10° SSW visible
19 May - 19:34:01 10° S 19:37:43 16° SE 19:42:36 10° E daylight
19 May - 21:54:25 10° SW 22:01:31 51° SSE 22:15:03 10° E daylight
20 May - 00:17:56 10° W 00:28:09 61° S 00:48:00 10° ESE daylight
20 May - 02:43:11 10° W 02:56:56 44° SSW 03:18:58 10° SE visible
20 May - 05:13:15 10° W 05:26:16 21° SW 05:42:02 10° S visible
20 May - 20:43:35 10° SW 20:49:18 36° SSE 20:59:04 10° E daylight
20 May - 23:06:14 10° WSW 23:14:38 61° S 23:31:15 10° ESE daylight
21 May - 01:30:34 10° W 01:42:22 52° SSW 02:03:32 10° SE daylight
21 May - 03:57:39 10° W 04:11:31 30° SW 04:30:45 10° SSE visible
21 May - 19:33:32 10° S 19:37:39 20° SE 19:43:23 10° E daylight
21 May - 21:54:51 10° WSW 22:01:44 53° SSE 22:14:52 10° E daylight
